Weather History for KTVL - June, 2013

Change the Weather History Date:

Saturday, June 15, 2013

  Actual Average Record
Temperature  
Mean Temperature 55 °F 54 °F  
Max Temperature 74 °F 72 °F 86 °F (2000)
Min Temperature 35 °F 37 °F 26 °F (1979)
Degree Days  
Heating Degree Days 10 11  
Month to date heating degree days 70 182  
Since 1 June heating degree days 70 182  
Since 1 July heating degree days 6933 7604  
Cooling Degree Days 0 0  
Month to date cooling degree days 5 0  
Year to date cooling degree days 5 0  
Since 1 June cooling degree days 5 0  
Growing Degree Days 4 (Base 50)    
Moisture  
Dew Point 30 °F    
Average Humidity 46    
Maximum Humidity 76    
Minimum Humidity 16    
Precipitation  
Precipitation 0.00 in - 0.81 in (1937)
Month to date precipitation 0.07  
Year to date precipitation 4.82  
Sea Level Pressure  
Sea Level Pressure 29.97 in    
Wind  
Wind Speed 3 mph (South)    
Max Wind Speed 15 mph    
Max Gust Speed 21 mph    
Visibility 10 miles    
Events      
T = Trace of Precipitation, MM = Missing Value Source: NWS Daily Summary

Daily Weather History Graph

Daily Weather History Graph

Search for Another Location

Airport or City:

Trip Planner

Search our weather history database for the weather conditions in past years. The results will help you decide how hot, cold, wet, or windy it might be!

Date:

Astronomy

Jun. 15, 2013 Rise Set
Actual Time 5:34 AM PDT 8:27 PM PDT
Civil Twilight 5:02 AM PDT 8:59 PM PDT
Nautical Twilight 4:21 AM PDT 9:39 PM PDT
Astronomical Twilight 3:35 AM PDT 10:26 PM PDT
Moon 12:10 PM PDT (6/15) 12:08 AM PDT (6/15)
Length of Visible Light 15h 57m
Length of Day
14h 53m
Waxing Crescent, 40% of the Moon is Illuminated
Jun 15
Waxing Crescent
Jun 16
First Quarter
Jun 23
Full
Jun 29
Last Quarter
Jul 8
New

Hourly Weather History & Observations

Time (PDT) Temp. Windchill Dew Point Humidity Pressure Visibility Wind Dir Wind Speed Gust Speed Precip Events Conditions
12:53 AM 43.0 °F - 34.0 °F 71% 29.96 in 10.0 mi Calm Calm - N/A   Clear
1:53 AM 41.0 °F 39.0 °F 32.0 °F 70% 29.96 in 10.0 mi South 3.5 mph - N/A   Clear
2:53 AM 39.0 °F 36.8 °F 30.9 °F 73% 29.95 in 10.0 mi South 3.5 mph - N/A   Clear
3:53 AM 37.0 °F 34.5 °F 30.9 °F 79% 29.95 in 10.0 mi South 3.5 mph - N/A   Clear
4:53 AM 36.0 °F - 28.9 °F 76% 29.96 in 10.0 mi Calm Calm - N/A   Clear
5:53 AM 35.1 °F - 28.0 °F 76% 29.97 in 10.0 mi Calm Calm - N/A   Clear
6:53 AM 37.9 °F - 30.0 °F 73% 29.98 in 10.0 mi Calm Calm - N/A   Clear
7:53 AM 51.1 °F - 33.1 °F 50% 29.96 in 10.0 mi Calm Calm - N/A   Clear
8:53 AM 61.0 °F - 28.0 °F 29% 29.94 in 10.0 mi East 3.5 mph - N/A   Clear
9:53 AM 64.9 °F - 32.0 °F 29% 29.94 in 10.0 mi NNE 6.9 mph - N/A   Clear
10:53 AM 68.0 °F - 36.0 °F 31% 29.94 in 10.0 mi Variable 3.5 mph - N/A   Clear
11:53 AM 66.9 °F - 30.0 °F 25% 29.95 in 10.0 mi NNE 8.1 mph - N/A   Clear
12:53 PM 71.1 °F - 24.1 °F 17% 29.95 in 10.0 mi NNE 11.5 mph - N/A   Clear
1:53 PM 73.9 °F - 25.0 °F 16% 29.95 in 10.0 mi Variable 5.8 mph - N/A   Clear
2:53 PM 73.0 °F - 24.1 °F 16% 29.95 in 10.0 mi Variable 4.6 mph 19.6 mph N/A   Clear
3:53 PM 73.0 °F - 26.1 °F 17% 29.96 in 10.0 mi SSW 10.4 mph - N/A   Clear
4:53 PM 72.0 °F - 26.1 °F 18% 29.96 in 10.0 mi Variable 5.8 mph 20.7 mph N/A   Clear
5:53 PM 70.0 °F - 28.0 °F 21% 29.97 in 10.0 mi Variable 5.8 mph - N/A   Clear
6:53 PM 66.9 °F - 30.0 °F 25% 29.99 in 10.0 mi SSW 8.1 mph - N/A   Clear
7:53 PM 62.1 °F - 30.0 °F 30% 29.98 in 10.0 mi SSW 4.6 mph - N/A   Clear
8:53 PM 55.9 °F - 30.9 °F 39% 29.99 in 10.0 mi Calm Calm - N/A   Clear
9:53 PM 54.0 °F - 30.9 °F 41% 30.01 in 10.0 mi SSW 4.6 mph - N/A   Clear
10:53 PM 48.9 °F - 33.1 °F 54% 30.02 in 10.0 mi South 3.5 mph - N/A   Clear
11:53 PM 46.9 °F - 30.9 °F 54% 30.04 in 10.0 mi SW 4.6 mph - N/A   Clear